This is the latest recevied weather packets stored in our database for station/object WE0DX-1. If no packets are shown the sender has not sent any weather packets the latest 10 day(s).
| Time | Temp. | Humidity | Pressure | Rain* | Wind** | Luminosity | Snow |
|---|---|---|---|---|---|---|---|
| 1778089669 | 12.78° C | 36% | 1018.5 hPa | 0 mm | - | 679 W/m² | - |
| 1778089366 | 13.33° C | 35% | 1018.6 hPa | 0 mm | - | 629 W/m² | - |
| 1778089064 | 12.78° C | 35% | 1018.8 hPa | 0 mm | - | 352 W/m² | - |
| 1778088760 | 12.78° C | 34% | 1018.8 hPa | 0 mm | - | 366 W/m² | - |
| 1778088456 | 12.78° C | 39% | 1018.4 hPa | 0 mm | - | 413 W/m² | - |
| 1778088153 | 12.78° C | 36% | 1018.5 hPa | 0 mm | - | 350 W/m² | - |
| 1778087845 | 12.78° C | 37% | 1018.6 hPa | 0 mm | - | 295 W/m² | - |
| 1778087543 | 13.33° C | 37% | 1018.6 hPa | 0 mm | - | 269 W/m² | - |
| 1778087240 | 13.33° C | 39% | 1018.6 hPa | 0 mm | - | 716 W/m² | - |
| 1778086936 | 13.33° C | 35% | 1018.5 hPa | 0 mm | - | 465 W/m² | - |
| 1778086635 | 13.33° C | 39% | 1018.8 hPa | 0 mm | - | 396 W/m² | - |
| 1778086331 | 13.33° C | 37% | 1018.9 hPa | 0 mm | - | 726 W/m² | - |
| 1778086029 | 13.89° C | 37% | 1018.6 hPa | 0 mm | - | 556 W/m² | - |
| 1778085726 | 13.89° C | 38% | 1018.6 hPa | 0 mm | - | 778 W/m² | - |
| 1778085422 | 13.33° C | 38% | 1018.6 hPa | 0 mm | - | 747 W/m² | - |
| 1778085117 | 12.78° C | 39% | 1018.6 hPa | 0 mm | - | 373 W/m² | - |
| 1778084813 | 12.78° C | 34% | 1018.6 hPa | 0 mm | - | 367 W/m² | - |
| 1778084511 | 13.89° C | 38% | 1018.7 hPa | 0 mm | - | 396 W/m² | - |
| 1778084209 | 12.78° C | 38% | 1018.7 hPa | 0 mm | - | 504 W/m² | - |
| 1778083904 | 12.78° C | 38% | 1018.7 hPa | 0 mm | - | 843 W/m² | - |
| 1778083602 | 12.78° C | 36% | 1018.7 hPa | 0 mm | - | 791 W/m² | - |
| 1778083299 | 13.33° C | 39% | 1018.4 hPa | 0 mm | - | 783 W/m² | - |
| 1778082997 | 13.33° C | 41% | 1018.2 hPa | 0 mm | - | 773 W/m² | - |
| 1778082694 | 12.22° C | 40% | 1018.2 hPa | 0 mm | - | 763 W/m² | - |
| 1778081556 | 11.67° C | 38% | 1018.2 hPa | 0 mm | - | 242 W/m² | - |
* Rain latest hour (hover to see other rain measurements)
** Current wind speed in m/s (hover to see current wind gust speed)